Regional Weather Roundup
Issued by NWS

Home | Current Version | Previous Version | Graphics & Text | Print | Product List | Glossary On
Versions: 1 2 3 4 5 6 7 8 9 10 11 12 13 14 15 16 17 18 19 20 21 22 23 24 25 26 27 28 29 30 31 32 33 34 35 36 37 38 39 40 41 42 43 44 45 46 47 48 49 50
000
ASUS43 KMPX 152301
RWRMN
WEATHER ROUNDUP FOR MINNESOTA
NATIONAL WEATHER SERVICE TWIN CITIES/CHANHASSEN MN
600 PM CDT TUE APR 15 2014


NOTE: "FAIR" INDICATES FEW OR NO CLOUDS BELOW 12,000 FEET WITH NO
SIGNIFICANT WEATHER AND/OR OBSTRUCTIONS TO VISIBILITY. N/A MEANS
CURRENT SKY AND/OR WEATHER CONDITIONS ARE NOT AVAILABLE.

MNZ060>063-068>070-160000-
   Twin Cities Metro

CITY           SKY/WX    TMP DP  RH WIND       PRES   REMARKS
TWIN CITIES    PTSUNNY   35   0  22 CALM      30.05F
ST PAUL        MOSUNNY   37  -1  20 CALM      30.07S
CRYSTAL        MOSUNNY   36   1  22 W5        30.04F
EDEN PRAIRIE   CLOUDY    37   3  24 CALM      30.04S
LAKEVILLE      SUNNY     36   9  32 S6        30.04F
SOUTH ST PAUL  MOSUNNY   39   0  19 SW3       30.05F
LAKE ELMO      FAIR      36   3  25 SW5       30.06S
$$
MNZ001>005-007-008-013>017-022>024-027-028-160000-
   Northwest Minnesota

CITY           SKY/WX    TMP DP  RH WIND       PRES   REMARKS
BEMIDJI        PTSUNNY   31  -2  23 E6        29.99F WCI  26
HALLOCK          N/A     28  10  47 CALM      30.03S
ROSEAU         SUNNY     28   5  37 E3        30.03S
WARROAD        SUNNY     25  10  54 E9        30.05S WCI  15
THIEF RVR FALL MOSUNNY   28   7  40 SE8       30.02S WCI  20
CROOKSTON      PTSUNNY   32   9  37 SE7       30.02S WCI  26
FOSSTON        PTSUNNY   30   9  40 N6        29.99F WCI  24
DETROIT LAKES  MOSUNNY   32   1  27 SE8       29.99S WCI  25
MOORHEAD       CLOUDY    34   3  27 SE10      29.99F WCI  26
PARK RAPIDS    PTSUNNY   32   1  26 SE8       29.97F WCI  25
$$
MNZ006-009>011-018-025>026-160000-
   North Central Minnesota

CITY           SKY/WX    TMP DP  RH WIND       PRES   REMARKS
BAUDETTE       SUNNY     26   1  34 NW8       30.04F WCI  18
FLAG ISLAND    SUNNY     21   3  45 S7        30.05S WCI  13
INTL FALLS     SUNNY     28   0  29 CALM      30.03S
WASKISH        MOSUNNY   28   0  29 W5        30.02F WCI  23
BIG FORK       SUNNY     32  -2  23 W3        30.01S
LONGVILLE      PTSUNNY   30  -6  21 CALM      30.00F
GRAND RAPIDS   SUNNY     30  -6  21 NW8       30.01S WCI  23
CRANE LAKE     SUNNY     28   3  34 N5        30.05S WCI  23
ORR            SUNNY     30  -4  22 NW3       29.99S
COOK           SUNNY     28   0  29 NW1       30.01S
$$
MNZ012-019>021-037-160000-
   Northeast Minnesota

CITY           SKY/WX    TMP DP  RH WIND       PRES   REMARKS
DULUTH         SUNNY     31   0  26 W9        30.01S WCI  23
ELY            SUNNY     28   0  29 CALM      30.01S
HIBBING        SUNNY     32   0  25 W8        30.01R WCI  25
EVELETH        SUNNY     30   0  27 CALM      30.01S
DULUTH HARBOR  SUNNY     34   9  35 CALM      30.07S
TWO HARBORS    SUNNY     30   5  34 W5        30.01R WCI  25
SILVER BAY     SUNNY     28  12  50 S10       30.00S WCI  19
GRAND MARAIS     N/A     29  19  66 SW16      30.05R WCI  17
G MARAIS ARPRT SUNNY     25  -4  28 NW9       29.98R WCI  15
$$
MNZ029>031-032-039>041-046>048-054>057-064-160000-
   West Central Minnesota

CITY           SKY/WX    TMP DP  RH WIND       PRES   REMARKS
FERGUS FALLS   CLOUDY    34  -2  21 SE10      29.96F WCI  26
WHEATON        PTSUNNY   37  16  41 E14G22    29.97F
MORRIS         PTSUNNY   36   7  30 SE13      29.96F
ALEXANDRIA     CLOUDY    33   4  29 SE12      29.98F WCI  24
ELBOW LAKE     PTSUNNY   33   3  28 SE8       29.97F WCI  25
WADENA         MOSUNNY   30   5  34 CALM      29.98F
GLENWOOD       CLOUDY    34   3  27 SE7       29.99F WCI  28
APPLETON       PTSUNNY   39   7  26 SE13      29.96F
BENSON         CLOUDY    37   7  28 S10       29.98F
ORTONVILLE     MOSUNNY   36   9  32 E18       29.93F
MADISON        PTSUNNY   43  12  28 E17       29.93F
WILLMAR        FAIR      37   7  28 SE10      30.01F
$$
MNZ033>034-036-042>043-049>051-058-059-160000-
   Central Minnesota

CITY           SKY/WX    TMP DP  RH WIND       PRES   REMARKS
ST CLOUD       MOSUNNY   36   2  23 SW5       30.03S
SAUK CENTRE    MOCLDY    33   9  36 S7        30.00F WCI  27
PAYNESVILLE    CLOUDY    34   4  28 SE7       30.02F WCI  28
AITKIN         MOSUNNY   34 -11  14 CALM      30.01S
PINE RIVER     MOSUNNY   32   7  34 E7        30.03F WCI  26
BRAINERD       MOSUNNY   37  -3  18 CALM      30.01F
STAPLES        MOSUNNY   32   1  27 S7        30.00F WCI  26
LONG PRAIRIE   FAIR      32   7  34 SE6       30.00F WCI  26
LITTLE FALLS   MOSUNNY   32   1  27 SW5       30.02F WCI  27
LITCHFIELD     MOSUNNY   36   5  27 SE7       30.02F
BUFFALO        CLOUDY    35   5  29 SW3       30.04F
MAPLE LAKE     CLOUDY    36   8  31 S5        30.04F
$$
MNZ037-044-045-052-053-160000-
   East Central Minnesota

CITY           SKY/WX    TMP DP  RH WIND       PRES   REMARKS
PRINCETON      SUNNY     37   1  22 CALM      30.04S
MORA           CLOUDY    32   5  32 SW7       30.06R WCI  26
CAMBRIDGE      SUNNY     37  14  38 CALM      30.03S
RUSH CITY      PTSUNNY   33   2  27 CALM      30.05F
MOOSE LAKE     SUNNY     32   1  27 CALM      30.02S
HINCKLEY       FAIR      34   0  23 CALM      30.04F
CLOQUET        SUNNY     30  -4  22 SW5       30.02S WCI  25
MCGREGOR       SUNNY     32   0  25 CALM      30.02F
$$
MNZ071>073-080-081-089-090-097-098-160000-
   Southwest Minnesota

CITY           SKY/WX    TMP DP  RH WIND       PRES   REMARKS
MONTEVIDEO     PTSUNNY   39  10  30 S14G20    29.97F
GRANITE FALLS  CLOUDY    38   9  29 E10G17    29.98F
CANBY          PTSUNNY   44  14  29 SE15      29.91F
MARSHALL       MOSUNNY   45  12  26 SE16G22   29.92F
REDWOOD FALLS  PTSUNNY   40  10  29 SE13      29.99F
OLIVIA         CLOUDY    37  12  35 SE8       29.99F
PIPESTONE      MOSUNNY   43  18  36 S17       29.88S
WINDOM         PTSUNNY   41  12  30 SE8       29.96F
WORTHINGTON    MOSUNNY   41  18  38 S15G24    29.95F
JACKSON        CLOUDY    41  16  36 SE12G17   29.97F
TRACY          SUNNY     44  14  30 S13G18    29.94F
SLAYTON        SUNNY     40  16  36 SE16G23   29.93F
$$
MNZ065>067-074>077-082>085-091>093-160000-
   South Central Minnesota

CITY           SKY/WX    TMP DP  RH WIND       PRES   REMARKS
MANKATO        CLOUDY    37   3  23 S10       30.04F
NEW ULM        PTSUNNY   37  10  32 S7        30.02S
ST JAMES       CLOUDY    39   9  28 SE10G18   30.02F
FAIRMONT       CLOUDY    37  12  35 S12       30.03F
GLENCOE        CLOUDY    36   4  26 SE6       30.03S
FARIBAULT      CLOUDY    39   0  19 SW5       30.05F
OWATONNA       CLOUDY    36  10  35 SE5       30.05S
WASECA         CLOUDY    37  12  35 CALM      30.05F
ALBERT LEA     CLOUDY    37  12  35 S6        30.04S
$$
MNZ078>079-086>088-094>096-160000-
   Southeast Minnesota

CITY           SKY/WX    TMP DP  RH WIND       PRES   REMARKS
ROCHESTER      CLOUDY    34  15  46 VRB6      30.06S WCI  29
RED WING       SUNNY     37   7  28 S6        30.06S
STANTON        SUNNY     37   7  29 SE6       30.04F
DODGE CENTER   PTSUNNY   36   9  32 S8        30.05S
WINONA         SUNNY     36  12  38 SW5       30.10R
AUSTIN         CLOUDY    36  12  38 S7        30.05S
PRESTON        SUNNY     35  13  41 SW5       30.07S WCI  31
$$
ABBREVIATIONS USED IN REMARKS
   TC - TEMPERATURES IN CELSIUS
  WCI - WIND CHILL INDEX
   HX - HEAT INDEX
  VSB - VISIBILITY
$$


USA.gov is the U.S. government's official web portal to all federal, state and local government web resources and services.